Regional Weather Roundup
Issued by NWS Sioux Falls, SD

Home | Current Version | Previous Version | Graphics & Text | Print | Product List | Glossary Off
Versions: 1 2 3 4 5 6 7 8 9 10 11 12 13 14 15 16 17 18 19 20 21 22 23 24 25 26 27 28 29 30 31 32 33 34 35 36 37 38 39 40 41 42 43 44 45 46 47 48 49 50

000
ASUS43 KFSD 271310
RWRFSD

WEATHER ROUNDUP FOR SE SOUTH DAKOTA/SW MINNESOTA/NW IOWA
NATIONAL WEATHER SERVICE SIOUX FALLS SD
800 AM CDT SAT AUG 27 2016

NOTE: "FAIR" INDICATES FEW OR NO CLOUDS BELOW 12,000 FEET WITH NO
SIGNIFICANT WEATHER AND OR OBSTRUCTIONS TO VISIBILITY.


SDZ038>040-050-052>070-271400-
SOUTHEAST SOUTH DAKOTA

CITY           SKY/WX    TMP DP  RH WIND       PRES   REMARKS
BROOKINGS      CLOUDY    59  57  93 SE6       30.02F
CHAMBERLAIN    MOSUNNY   58  58 100 CALM      29.99R FOG
HURON          FOG       60  60 100 SE9       29.98R VSB 3/4
MADISON        CLOUDY    57  57 100 E6        30.02F
MITCHELL       CLOUDY    63  61  93 SE9       30.00S
SIOUX FALLS    CLOUDY    62  62 100 E5        30.02S
WINNER         FAIR      61  57  87 S8        29.98S
YANKTON        CLOUDY    63  61  94 CALM      30.01S
$$

MNZ071-072-080-081-089-090-097-098-271400-
SOUTHWEST MINNESOTA

CITY           SKY/WX    TMP DP  RH WIND       PRES   REMARKS
FAIRMONT       LGT RAIN  60  59  96 E6        30.04S
JACKSON        LGT SNOW  61  59  94 SE5       30.05R VSB 3/4
LUVERNE        CLOUDY    59  57  94 CALM      30.03S FOG
MARSHALL       LGT RAIN  61  59  94 CALM      30.05F
MONTEVIDEO     LGT RAIN  61  61 100 S3        30.06R
REDWOOD FALLS  RAIN      60  58  92 S5        30.06R FOG
TRACY          RAIN      60  59  98 CALM      30.05R
WINDOM         RAIN      61  59  94 E5        30.05R
WORTHINGTON    CLOUDY    60  59  96 E6        30.05R FOG
$$

IAZ001>003-012>014-020>022-031-032-NEZ013-014-SDZ071-271400-
NORTHWEST IOWA

CITY           SKY/WX    TMP DP  RH WIND       PRES   REMARKS
CHEROKEE       CLOUDY    62  62 100 CALM      30.03S FOG
DENISON        FOG       63  63 100 SE3       30.02R VSB 1/4
ESTHERVILLE    CLOUDY    59  59 100 SE9       30.04R FOG
LE MARS        CLOUDY    63  63 100 MISG      30.03S FOG
ORANGE CITY    DRIZZLE   63  63 100 CALM      30.03S
SHELDON        CLOUDY    61  61 100 S7        30.02S FOG
SIOUX CITY     FOG       65  63  93 CALM      30.02S VSB 1
SPENCER        LGT RAIN  61  59  93 SE7       30.04R FOG
STORM LAKE     FOG       61  61 100 SE5       30.04S VSB<1/4
$$

ABBREVIATIONS USED IN REMARKS
   TC - TEMPERATURE IN CELSIUS
  WCI - WIND CHILL INDEX
   HX - HEAT INDEX
  VSB - VISIBILITY





USA.gov is the U.S. government's official web portal to all federal, state and local government web resources and services.